Weather History for KORB - August, 2014

Change the Weather History Date:

Sunday, August 17, 2014

  Actual Average Record
Temperature  
Mean Temperature 60 °F -  
Max Temperature 66 °F 72 °F 87 °F (2003)
Min Temperature 53 °F 50 °F 6 °F (1998)
Degree Days  
Heating Degree Days 6    
Growing Degree Days 10 (Base 50)    
Moisture  
Dew Point 52 °F    
Average Humidity 76    
Maximum Humidity 88    
Minimum Humidity 59    
Precipitation  
Precipitation 0.00 in - - ()
Sea Level Pressure  
Sea Level Pressure 29.99 in    
Wind  
Wind Speed 4 mph (SE)    
Max Wind Speed 8 mph    
Max Gust Speed -    
Visibility 10 miles    
Events      
Averages and records for this station are not official NWS values.
T = Trace of Precipitation, MM = Missing Value Source: NWS Daily Summary

Daily Weather History Graph

Daily Weather History Graph

Search for Another Location

Airport or City:

Trip Planner

Search our weather history database for the weather conditions in past years. The results will help you decide how hot, cold, wet, or windy it might be!

Date:

Astronomy

Aug. 17, 2014 Rise Set
Actual Time 6:08 AM CDT 8:20 PM CDT
Civil Twilight 5:35 AM CDT 8:54 PM CDT
Nautical Twilight 4:52 AM CDT 9:36 PM CDT
Astronomical Twilight 4:04 AM CDT 10:24 PM CDT
Moon No Moon Rise 2:31 PM CDT (8/17)
Length of Visible Light 15h 19m
Length of Day
14h 12m
Waning Gibbous, 48% of the Moon is Illuminated
Aug 17
Waning Gibbous
Aug 25
New
Sep 2
First Quarter
Sep 8
Full
Sep 15
Last Quarter

Hourly Weather History & Observations

Time (CDT) Temp. Dew Point Humidity Pressure Visibility Wind Dir Wind Speed Gust Speed Precip Events Conditions
12:13 AM 60.8 °F 55.4 °F 82% 29.99 in 10.0 mi SE 3.5 mph - N/A   Overcast
12:53 AM 62.6 °F 55.4 °F 77% 30.00 in 10.0 mi SE 5.8 mph - N/A   Overcast
1:13 AM 62.6 °F 55.4 °F 77% 30.00 in 10.0 mi SE 5.8 mph - N/A   Overcast
1:33 AM 60.8 °F 55.4 °F 82% 30.01 in 10.0 mi SE 5.8 mph - N/A   Overcast
2:13 AM 60.8 °F 53.6 °F 77% 30.02 in 10.0 mi SE 3.5 mph - N/A   Overcast
2:33 AM 60.8 °F 53.6 °F 77% 30.02 in 10.0 mi Calm Calm - N/A   Mostly Cloudy
2:53 AM 60.8 °F 53.6 °F 77% 30.02 in 10.0 mi SE 4.6 mph - N/A   Overcast
3:13 AM 59.0 °F 53.6 °F 82% 30.03 in 10.0 mi Calm Calm - N/A   Mostly Cloudy
3:33 AM 59.0 °F 53.6 °F 82% 30.03 in 10.0 mi Calm Calm - N/A   Overcast
3:53 AM 57.2 °F 53.6 °F 88% 30.03 in 10.0 mi Calm Calm - N/A   Mostly Cloudy
4:13 AM 57.2 °F 53.6 °F 88% 30.02 in 10.0 mi ESE 4.6 mph - N/A   Scattered Clouds
4:33 AM 57.2 °F 53.6 °F 88% 30.03 in 10.0 mi SSE 4.6 mph - N/A   Mostly Cloudy
4:53 AM 57.2 °F 53.6 °F 88% 30.03 in 10.0 mi SE 4.6 mph - N/A   Scattered Clouds
5:13 AM 57.2 °F 53.6 °F 88% 30.03 in 10.0 mi SE 4.6 mph - N/A   Clear
5:33 AM 55.4 °F 51.8 °F 88% 30.03 in 10.0 mi SE 4.6 mph - N/A   Clear
5:53 AM 55.4 °F 51.8 °F 88% 30.03 in 10.0 mi SE 4.6 mph - N/A   Scattered Clouds
6:13 AM 55.4 °F 51.8 °F 88% 30.03 in 10.0 mi SE 3.5 mph - N/A   Scattered Clouds
6:33 AM 55.4 °F 51.8 °F 88% 30.04 in 10.0 mi SE 3.5 mph - N/A   Mostly Cloudy
6:53 AM 55.4 °F 51.8 °F 88% 30.04 in 10.0 mi SE 3.5 mph - N/A   Overcast
7:13 AM 57.2 °F 51.8 °F 82% 30.04 in 10.0 mi SE 4.6 mph - N/A   Overcast
7:33 AM 57.2 °F 53.6 °F 88% 30.03 in 10.0 mi SE 4.6 mph - N/A   Overcast
7:53 AM 57.2 °F 51.8 °F 82% 30.04 in 10.0 mi SSE 5.8 mph - N/A   Overcast
8:13 AM 59.0 °F 53.6 °F 82% 30.03 in 10.0 mi SSE 4.6 mph - N/A   Overcast
8:33 AM 57.2 °F 51.8 °F 82% 30.04 in 10.0 mi SE 4.6 mph - N/A   Overcast
8:53 AM 59.0 °F 51.8 °F 77% 30.05 in 10.0 mi SSE 6.9 mph - N/A   Overcast
9:13 AM 59.0 °F 51.8 °F 77% 30.05 in 10.0 mi SE 3.5 mph - N/A   Overcast
9:33 AM 59.0 °F 51.8 °F 77% 30.05 in 10.0 mi SSE 8.1 mph - N/A   Overcast
9:53 AM 60.8 °F 51.8 °F 72% 30.05 in 10.0 mi SE 6.9 mph - N/A   Overcast
10:13 AM 60.8 °F 51.8 °F 72% 30.04 in 10.0 mi ESE 4.6 mph - N/A   Overcast
10:34 AM 62.6 °F 51.8 °F 68% 30.03 in 10.0 mi SE 4.6 mph - N/A   Mostly Cloudy
10:53 AM 62.6 °F 53.6 °F 72% 30.03 in 10.0 mi SE 5.8 mph - N/A   Overcast
11:13 AM 62.6 °F 53.6 °F 72% 30.03 in 10.0 mi East 4.6 mph - N/A   Mostly Cloudy
11:33 AM 64.4 °F 51.8 °F 64% 30.02 in 10.0 mi SE 3.5 mph - N/A   Scattered Clouds
11:53 AM 66.2 °F 51.8 °F 60% 30.02 in 10.0 mi ESE 5.8 mph - N/A   Clear
12:13 PM 64.4 °F 50.0 °F 59% 30.02 in 10.0 mi ESE 6.9 mph - N/A   Clear
12:33 PM 64.4 °F 50.0 °F 59% 30.02 in 10.0 mi East 5.8 mph - N/A   Clear
12:53 PM 64.4 °F 51.8 °F 64% 30.02 in 10.0 mi SE 4.6 mph - N/A   Clear
1:13 PM 64.4 °F 51.8 °F 64% 30.02 in 10.0 mi Calm Calm - N/A   Clear
1:33 PM 64.4 °F 51.8 °F 64% 30.01 in 10.0 mi East 4.6 mph - N/A   Clear
1:53 PM 64.4 °F 51.8 °F 64% 30.00 in 10.0 mi Calm Calm - N/A   Clear
2:13 PM 64.4 °F 53.6 °F 68% 30.00 in 10.0 mi Calm Calm - N/A   Clear
2:33 PM 64.4 °F 53.6 °F 68% 30.00 in 10.0 mi Calm Calm - N/A   Scattered Clouds
2:53 PM 64.4 °F 53.6 °F 68% 30.00 in 10.0 mi SSE 5.8 mph - N/A   Light Drizzle
3:13 PM 64.4 °F 53.6 °F 68% 30.00 in 10.0 mi SSE 4.6 mph - N/A   Mostly Cloudy
3:33 PM 64.4 °F 53.6 °F 68% 29.99 in 10.0 mi SE 6.9 mph - N/A   Scattered Clouds
3:53 PM 64.4 °F 53.6 °F 68% 29.98 in 10.0 mi SSE 6.9 mph - N/A   Scattered Clouds
4:13 PM 64.4 °F 53.6 °F 68% 29.98 in 10.0 mi SE 3.5 mph - N/A   Scattered Clouds
4:33 PM - - N/A% 29.98 in 10.0 mi SSE 5.8 mph - N/A   Scattered Clouds
5:13 PM 66.2 °F 53.6 °F 64% 29.97 in 10.0 mi SE 3.5 mph - N/A   Scattered Clouds
5:34 PM 64.4 °F 53.6 °F 68% 29.96 in 10.0 mi SE 4.6 mph - N/A   Mostly Cloudy
5:53 PM 64.4 °F 53.6 °F 68% 29.96 in 10.0 mi SE 6.9 mph - N/A   Scattered Clouds
6:13 PM 64.4 °F 53.6 °F 68% 29.95 in 10.0 mi ESE 5.8 mph - N/A   Mostly Cloudy
6:34 PM 62.6 °F 51.8 °F 68% 29.95 in 10.0 mi SE 5.8 mph - N/A   Mostly Cloudy
6:53 PM 62.6 °F 51.8 °F 68% 29.94 in 10.0 mi SE 4.6 mph - N/A   Clear
7:13 PM 60.8 °F 51.8 °F 72% 29.93 in 10.0 mi SE 4.6 mph - N/A   Clear
7:34 PM 59.0 °F 51.8 °F 77% 29.93 in 10.0 mi SE 4.6 mph - N/A   Clear
7:53 PM 59.0 °F 51.8 °F 77% 29.92 in 10.0 mi SE 3.5 mph - N/A   Clear
8:13 PM 57.2 °F 51.8 °F 82% 29.92 in 10.0 mi Calm Calm - N/A   Clear
8:33 PM 55.4 °F 50.0 °F 82% 29.92 in 10.0 mi SE 3.5 mph - N/A   Clear
8:53 PM 55.4 °F 50.0 °F 82% 29.92 in 10.0 mi SE 4.6 mph - N/A   Clear
9:13 PM 55.4 °F 50.0 °F 82% 29.93 in 10.0 mi SE 4.6 mph - N/A   Clear
9:53 PM 53.6 °F 48.2 °F 82% 29.94 in 10.0 mi Calm Calm - N/A   Scattered Clouds
10:13 PM 53.6 °F 50.0 °F 88% 29.93 in 10.0 mi Calm Calm - N/A   Mostly Cloudy
10:33 PM 55.4 °F 50.0 °F 82% 29.92 in 10.0 mi SE 3.5 mph - N/A   Overcast
10:53 PM 55.4 °F 50.0 °F 82% 29.92 in 10.0 mi Calm Calm - N/A   Overcast
11:13 PM 55.4 °F 50.0 °F 82% 29.91 in 10.0 mi Calm Calm - N/A   Overcast
11:33 PM 55.4 °F 50.0 °F 82% 29.91 in 10.0 mi Calm Calm - N/A   Overcast
11:53 PM 55.4 °F 50.0 °F 82% 29.90 in 7.0 mi SE 3.5 mph - N/A   Overcast